This is the latest recevied weather packets stored in our database for station/object WA9SDJ-13. If no packets are shown the sender has not sent any weather packets the latest 10 day(s).
| Time | Temp. | Humidity | Pressure | Rain* | Wind** | Luminosity | Snow |
|---|---|---|---|---|---|---|---|
| 1777960322 | 15.56° C | 86% | 1005 hPa | 0.76 mm | - | 0 W/m² | - |
| 1777960262 | 15.56° C | 86% | 1004.9 hPa | 0.76 mm | - | 0 W/m² | - |
| 1777960203 | 15.56° C | 86% | 1004.7 hPa | 0.76 mm | - | 0 W/m² | - |
| 1777960142 | 15.56° C | 86% | 1004.6 hPa | 0.76 mm | - | 0 W/m² | - |
| 1777960082 | 15.56° C | 86% | 1004.1 hPa | 0.76 mm | - | 0 W/m² | - |
| 1777960021 | 15.56° C | 86% | 1003.7 hPa | 0.76 mm | - | 0 W/m² | - |
| 1777959962 | 15.56° C | 86% | 1003.4 hPa | 0.76 mm | - | 0 W/m² | - |
| 1777959902 | 15.56° C | 86% | 1003.2 hPa | 0.76 mm | - | 0 W/m² | - |
| 1777959842 | 15.56° C | 86% | 1003.1 hPa | 0.76 mm | - | 0 W/m² | - |
| 1777959782 | 15.56° C | 86% | 1003 hPa | 0.76 mm | - | 0 W/m² | - |
| 1777959722 | 15.56° C | 86% | 1003 hPa | 0.76 mm | - | 0 W/m² | - |
| 1777959662 | 15.56° C | 86% | 1002.8 hPa | 0.76 mm | - | 0 W/m² | - |
| 1777959603 | 15.56° C | 86% | 1002.7 hPa | 0.76 mm | - | 0 W/m² | - |
| 1777959542 | 15.56° C | 86% | 1002.7 hPa | 0.76 mm | - | 0 W/m² | - |
| 1777959482 | 15.56° C | 86% | 1002.7 hPa | 0.76 mm | - | 0 W/m² | - |
| 1777959423 | 15.56° C | 86% | 1002.6 hPa | 0.76 mm | - | 0 W/m² | - |
| 1777959363 | 15.56° C | 86% | 1002.6 hPa | 1.02 mm | - | 0 W/m² | - |
| 1777959302 | 15.56° C | 86% | 1002.6 hPa | 1.27 mm | - | 0 W/m² | - |
| 1777959242 | 15.56° C | 86% | 1002.6 hPa | 1.52 mm | - | 0 W/m² | - |
| 1777959182 | 15.56° C | 86% | 1002.7 hPa | 1.78 mm | - | 0 W/m² | - |
| 1777959121 | 15.56° C | 86% | 1002.7 hPa | 2.29 mm | - | 0 W/m² | - |
| 1777959061 | 15.56° C | 86% | 1002.9 hPa | 3.05 mm | - | 0 W/m² | - |
| 1777959002 | 15.56° C | 86% | 1002.7 hPa | 4.06 mm | - | 0 W/m² | - |
| 1777958942 | 15.56° C | 86% | 1002.8 hPa | 4.32 mm | - | 0 W/m² | - |
| 1777958882 | 15.56° C | 86% | 1002.9 hPa | 4.32 mm | - | 0 W/m² | - |
* Rain latest hour (hover to see other rain measurements)
** Current wind speed in m/s (hover to see current wind gust speed)